| time (UTC) | temp C | wind direction | speed KPH | gust KPH | rain 1hr cm | rain 24hr cm | rain mn cm | humidity % | barometer mb |
| 20260508105004 | 4 | 66 | 9.7 | 14.5 | 0.00 | 0.00 | 0.00 | 54 | 1020.2 |
| 20260508104504 | 4 | 44 | 8.0 | 14.5 | 0.00 | 0.00 | 0.00 | 54 | 1020.2 |
| 20260508104004 | 4 | 38 | 9.7 | 16.1 | 0.00 | 0.00 | 0.00 | 55 | 1020.2 |
| 20260508103504 | 3 | 60 | 11.3 | 16.1 | 0.00 | 0.00 | 0.00 | 55 | 1020.2 |
| 20260508103005 | 3 | 54 | 6.4 | 11.3 | 0.00 | 0.00 | 0.00 | 56 | 1020.3 |
| 20260508102504 | 3 | 53 | 8.0 | 9.7 | 0.00 | 0.00 | 0.00 | 56 | 1020.3 |
| 20260508102004 | 3 | 53 | 6.4 | 14.5 | 0.00 | 0.00 | 0.00 | 56 | 1020.4 |
| 20260508101504 | 3 | 83 | 9.7 | 14.5 | 0.00 | 0.00 | 0.00 | 56 | 1020.6 |
| 20260508101004 | 3 | 42 | 9.7 | 11.3 | 0.00 | 0.00 | 0.00 | 55 | 1020.6 |
| 20260508100505 | 3 | 52 | 1.6 | 9.7 | 0.00 | 0.00 | 0.00 | 54 | 1020.3 |
| 20260508100004 | 4 | 65 | 6.4 | 9.7 | 0.00 | 0.00 | 0.00 | 53 | 1020.3 |
| 20260508095504 | 5 | 39 | 8.0 | 9.7 | 0.00 | 0.00 | 0.00 | 51 | 1020.3 |
| 20260508094505 | 5 | 41 | 1.6 | 8.0 | 0.00 | 0.00 | 0.00 | 49 | 1020.3 |
| 20260508094005 | 5 | 59 | 3.2 | 9.7 | 0.00 | 0.00 | 0.00 | 50 | 1020.3 |
| 20260508093504 | 5 | 72 | 3.2 | 9.7 | 0.00 | 0.00 | 0.00 | 50 | 1020.3 |
| 20260508093005 | 5 | 44 | 8.0 | 12.9 | 0.00 | 0.00 | 0.00 | 50 | 1020.2 |
| 20260508092504 | 5 | 42 | 8.0 | 12.9 | 0.00 | 0.00 | 0.00 | 50 | 1020.2 |
| 20260508091504 | 6 | 42 | 8.0 | 12.9 | 0.00 | 0.00 | 0.00 | 47 | 1020.3 |
| 20260508090504 | 7 | 55 | 3.2 | 11.3 | 0.00 | 0.00 | 0.00 | 43 | 1020.6 |
| 20260508090005 | 7 | 78 | 4.8 | 19.3 | 0.00 | 0.00 | 0.00 | 44 | 1020.6 |
| 20260508085004 | 5 | 64 | 11.3 | 19.3 | 0.00 | 0.00 | 0.00 | 48 | 1020.3 |
| 20260508084504 | 6 | 42 | 0.0 | 11.3 | 0.00 | 0.00 | 0.00 | 47 | 1020.2 |
| 20260508084004 | 6 | 55 | 8.0 | 11.3 | 0.00 | 0.00 | 0.00 | 46 | 1020.1 |
| 20260508083505 | 6 | 54 | 4.8 | 8.0 | 0.00 | 0.00 | 0.00 | 46 | 1020.1 |
| 20260508083005 | 6 | 90 | 3.2 | 8.0 | 0.00 | 0.00 | 0.00 | 46 | 1020.1 |
| 20260508082504 | 6 | 46 | 3.2 | 4.8 | 0.00 | 0.00 | 0.00 | 45 | 1020.7 |
| 20260508082004 | 7 | 46 | 3.2 | 12.9 | 0.00 | 0.00 | 0.00 | 44 | 1020.7 |
| 20260508081505 | 7 | 280 | 3.2 | 12.9 | 0.00 | 0.00 | 0.00 | 44 | 1020.6 |
| 20260508081004 | 6 | 100 | 8.0 | 11.3 | 0.00 | 0.00 | 0.00 | 47 | 1020.0 |
| 20260508080004 | 6 | 5 | 4.8 | 12.9 | 0.00 | 0.00 | 0.00 | 48 | 1020.1 |
| 20260508075504 | 5 | 87 | 1.6 | 4.8 | 0.00 | 0.00 | 0.00 | 48 | 1020.3 |
| 20260508075005 | 5 | 50 | 1.6 | 14.5 | 0.00 | 0.00 | 0.00 | 49 | 1020.4 |
| 20260508074504 | 5 | 64 | 9.7 | 14.5 | 0.00 | 0.00 | 0.00 | 49 | 1020.4 |
| 20260508074004 | 5 | 20 | 1.6 | 9.7 | 0.00 | 0.00 | 0.00 | 49 | 1020.4 |
| 20260508073504 | 5 | 83 | 3.2 | 9.7 | 0.00 | 0.00 | 0.00 | 49 | 1020.4 |
| 20260508073004 | 5 | 52 | 4.8 | 12.9 | 0.00 | 0.00 | 0.00 | 49 | 1020.5 |
| 20260508072504 | 5 | 30 | 3.2 | 12.9 | 0.00 | 0.00 | 0.00 | 49 | 1020.5 |
| 20260508072004 | 5 | 45 | 6.4 | 9.7 | 0.00 | 0.00 | 0.00 | 49 | 1020.5 |
| 20260508071504 | 6 | 47 | 6.4 | 11.3 | 0.00 | 0.00 | 0.00 | 48 | 1020.7 |
| 20260508071004 | 6 | 49 | 6.4 | 11.3 | 0.00 | 0.00 | 0.00 | 48 | 1020.7 |
| 20260508065504 | 6 | 49 | 4.8 | 8.0 | 0.00 | 0.00 | 0.00 | 46 | 1020.1 |
| 20260508064504 | 7 | 67 | 3.2 | 4.8 | 0.00 | 0.00 | 0.00 | 45 | 1020.2 |
| 20260508064005 | 7 | 32 | 3.2 | 9.7 | 0.00 | 0.00 | 0.00 | 44 | 1020.2 |
| 20260508063504 | 7 | 71 | 3.2 | 9.7 | 0.00 | 0.00 | 0.00 | 43 | 1020.2 |
| 20260508062505 | 8 | 76 | 1.6 | 11.3 | 0.00 | 0.00 | 0.00 | 42 | 1020.2 |
| 20260508062005 | 8 | 15 | 4.8 | 19.3 | 0.00 | 0.00 | 0.00 | 41 | 1020.1 |
| 20260508061504 | 8 | 46 | 8.0 | 19.3 | 0.00 | 0.00 | 0.00 | 41 | 1020.0 |
| 20260508061004 | 8 | 39 | 9.7 | 16.1 | 0.00 | 0.00 | 0.00 | 41 | 1020.1 |
| 20260508060504 | 8 | 56 | 6.4 | 16.1 | 0.00 | 0.00 | 0.00 | 41 | 1020.1 |
| 20260508060005 | 8 | 66 | 11.3 | 16.1 | 0.00 | 0.00 | 0.00 | 42 | 1020.1 |
| 20260508055505 | 8 | 39 | 3.2 | 12.9 | 0.00 | 0.00 | 0.00 | 40 | 1020.1 |
| 20260508055005 | 8 | 56 | 6.4 | 19.3 | 0.00 | 0.00 | 0.00 | 41 | 1020.1 |
| 20260508054505 | 8 | 65 | 12.9 | 19.3 | 0.00 | 0.00 | 0.00 | 42 | 1019.9 |
| 20260508054006 | 8 | 25 | 4.8 | 12.9 | 0.00 | 0.00 | 0.00 | 41 | 1019.9 |
| 20260508053505 | 8 | 77 | 4.8 | 14.5 | 0.00 | 0.00 | 0.00 | 41 | 1019.9 |
| 20260508053005 | 8 | 36 | 11.3 | 16.1 | 0.00 | 0.00 | 0.00 | 40 | 1020.2 |
| 20260508052005 | 8 | 29 | 8.0 | 16.1 | 0.00 | 0.00 | 0.00 | 40 | 1019.8 |
| 20260508051505 | 8 | 49 | 8.0 | 14.5 | 0.00 | 0.00 | 0.00 | 40 | 1019.8 |
| 20260508051006 | 8 | 38 | 3.2 | 8.0 | 0.00 | 0.00 | 0.00 | 40 | 1019.8 |
| 20260508050505 | 8 | 50 | 4.8 | 11.3 | 0.00 | 0.00 | 0.00 | 39 | 1019.8 |
| 20260508050005 | 8 | 62 | 3.2 | 11.3 | 0.00 | 0.00 | 0.00 | 39 | 1019.8 |
| 20260508044505 | 10 | 26 | 6.4 | 14.5 | 0.00 | 0.00 | 0.00 | 35 | 1019.7 |
| 20260508044005 | 9 | 61 | 9.7 | 16.1 | 0.00 | 0.00 | 0.00 | 36 | 1019.7 |
| 20260508043505 | 8 | 63 | 11.3 | 16.1 | 0.00 | 0.00 | 0.00 | 38 | 1019.5 |
| 20260508043005 | 8 | 50 | 9.7 | 14.5 | 0.00 | 0.00 | 0.00 | 39 | 1019.5 |
| 20260508042005 | 8 | 42 | 9.7 | 16.1 | 0.00 | 0.00 | 0.00 | 36 | 1019.5 |
| 20260508041505 | 10 | 34 | 6.4 | 16.1 | 0.00 | 0.00 | 0.00 | 35 | 1019.5 |
| 20260508041005 | 9 | 51 | 14.5 | 16.1 | 0.00 | 0.00 | 0.00 | 35 | 1019.4 |
| 20260508040505 | 8 | 41 | 11.3 | 16.1 | 0.00 | 0.00 | 0.00 | 37 | 1019.4 |
| 20260508040005 | 8 | 39 | 8.0 | 14.5 | 0.00 | 0.00 | 0.00 | 36 | 1019.4 |
| 20260508035505 | 9 | 37 | 9.7 | 14.5 | 0.00 | 0.00 | 0.00 | 35 | 1019.3 |
| 20260508035005 | 10 | 47 | 9.7 | 14.5 | 0.00 | 0.00 | 0.00 | 34 | 1019.3 |
| 20260508034506 | 10 | 51 | 11.3 | 16.1 | 0.00 | 0.00 | 0.00 | 33 | 1019.1 |
| 20260508034005 | 11 | 43 | 9.7 | 16.1 | 0.00 | 0.00 | 0.00 | 32 | 1019.1 |
| 20260508033505 | 11 | 51 | 8.0 | 16.1 | 0.00 | 0.00 | 0.00 | 31 | 1019.1 |
| 20260508033005 | 11 | 56 | 12.9 | 16.1 | 0.00 | 0.00 | 0.00 | 30 | 1019.0 |
| 20260508032505 | 12 | 52 | 8.0 | 9.7 | 0.00 | 0.00 | 0.00 | 29 | 1019.0 |
| 20260508032005 | 12 | 62 | 6.4 | 8.0 | 0.00 | 0.00 | 0.00 | 29 | 1018.9 |
| 20260508031505 | 13 | 63 | 6.4 | 8.0 | 0.00 | 0.00 | 0.00 | 29 | 1018.4 |
| 20260508030005 | 14 | 260 | 8.0 | 16.1 | 0.00 | 0.00 | 0.00 | 27 | 1018.4 |
| 20260508025005 | 15 | 259 | 9.7 | 16.1 | 0.00 | 0.00 | 0.00 | 24 | 1017.7 |
| 20260508024505 | 16 | 160 | 11.3 | 20.9 | 0.00 | 0.00 | 0.00 | 24 | 1017.7 |
| 20260508024005 | 16 | 154 | 12.9 | 20.9 | 0.00 | 0.00 | 0.00 | 23 | 1017.7 |
| 20260508023505 | 16 | 150 | 14.5 | 20.9 | 0.00 | 0.00 | 0.00 | 23 | 1017.7 |
| 20260508023006 | 16 | 146 | 9.7 | 22.5 | 0.00 | 0.00 | 0.00 | 22 | 1017.7 |
| 20260508022505 | 16 | 156 | 16.1 | 22.5 | 0.00 | 0.00 | 0.00 | 22 | 1017.7 |
| 20260508022005 | 16 | 149 | 14.5 | 24.1 | 0.00 | 0.00 | 0.00 | 22 | 1017.7 |
| 20260508021504 | 16 | 153 | 17.7 | 24.1 | 0.00 | 0.00 | 0.00 | 21 | 1017.6 |
| 20260508021005 | 17 | 147 | 14.5 | 24.1 | 0.00 | 0.00 | 0.00 | 21 | 1017.5 |
| 20260508020505 | 17 | 154 | 11.3 | 25.7 | 0.00 | 0.00 | 0.00 | 21 | 1017.5 |
| 20260508020005 | 17 | 148 | 9.7 | 25.7 | 0.00 | 0.00 | 0.00 | 21 | 1017.5 |
| 20260508015504 | 17 | 160 | 17.7 | 25.7 | 0.00 | 0.00 | 0.00 | 21 | 1017.5 |
| 20260508015005 | 17 | 161 | 16.1 | 25.7 | 0.00 | 0.00 | 0.00 | 20 | 1017.7 |
| 20260508014505 | 18 | 155 | 14.5 | 27.4 | 0.00 | 0.00 | 0.00 | 20 | 1017.7 |
| 20260508014005 | 18 | 158 | 16.1 | 27.4 | 0.00 | 0.00 | 0.00 | 19 | 1017.7 |
| 20260508013006 | 18 | 167 | 19.3 | 27.4 | 0.00 | 0.00 | 0.00 | 18 | 1017.7 |
| 20260508012505 | 18 | 157 | 17.7 | 25.7 | 0.00 | 0.00 | 0.00 | 18 | 1017.8 |
| 20260508012005 | 18 | 164 | 17.7 | 27.4 | 0.00 | 0.00 | 0.00 | 18 | 1017.9 |
| 20260508011505 | 18 | 168 | 19.3 | 29.0 | 0.00 | 0.00 | 0.00 | 17 | 1017.8 |
| 20260508011005 | 19 | 169 | 19.3 | 29.0 | 0.00 | 0.00 | 0.00 | 17 | 1017.8 |
| 20260508010506 | 19 | 173 | 17.7 | 25.7 | 0.00 | 0.00 | 0.00 | 17 | 1017.9 |
| 20260508010005 | 19 | 193 | 14.5 | 22.5 | 0.00 | 0.00 | 0.00 | 18 | 1017.5 |
| 20260508005504 | 19 | 199 | 11.3 | 19.3 | 0.00 | 0.00 | 0.00 | 18 | 1017.5 |
| 20260508005005 | 19 | 215 | 11.3 | 19.3 | 0.00 | 0.00 | 0.00 | 17 | 1018.1 |
| 20260508004505 | 20 | 199 | 12.9 | 22.5 | 0.00 | 0.00 | 0.00 | 18 | 1018.1 |
| 20260508004005 | 20 | 196 | 14.5 | 22.5 | 0.00 | 0.00 | 0.00 | 18 | 1018.1 |
| 20260508003504 | 20 | 190 | 12.9 | 22.5 | 0.00 | 0.00 | 0.00 | 17 | 1018.1 |
| 20260508003005 | 20 | 215 | 11.3 | 22.5 | 0.00 | 0.00 | 0.00 | 17 | 1018.6 |
| 20260508002504 | 20 | 198 | 14.5 | 20.9 | 0.00 | 0.00 | 0.00 | 18 | 1018.6 |
| 20260508002005 | 20 | 173 | 9.7 | 20.9 | 0.00 | 0.00 | 0.00 | 17 | 1018.6 |
| 20260508001505 | 20 | 183 | 11.3 | 19.3 | 0.00 | 0.00 | 0.00 | 17 | 1018.6 |
| 20260508001005 | 20 | 181 | 16.1 | 20.9 | 0.00 | 0.00 | 0.00 | 18 | 1018.6 |
| 20260508000505 | 20 | 192 | 14.5 | 27.4 | 0.00 | 0.00 | 0.00 | 17 | 1018.6 |
| 20260508000005 | 20 | 219 | 17.7 | 27.4 | 0.00 | 0.00 | 0.00 | 17 | 1018.4 |
| 20260507235505 | 20 | 212 | 16.1 | 27.4 | 0.00 | 0.00 | 0.00 | 17 | 1018.4 |
| 20260507235005 | 20 | 188 | 16.1 | 22.5 | 0.00 | 0.00 | 0.00 | 17 | 1018.4 |
| 20260507234505 | 20 | 229 | 9.7 | 22.5 | 0.00 | 0.00 | 0.00 | 18 | 1018.4 |
| 20260507234005 | 20 | 160 | 14.5 | 20.9 | 0.00 | 0.00 | 0.00 | 17 | 1018.5 |
| 20260507233504 | 20 | 205 | 6.4 | 22.5 | 0.00 | 0.00 | 0.00 | 17 | 1018.5 |
| 20260507232504 | 20 | 205 | 9.7 | 25.7 | 0.00 | 0.00 | 0.00 | 16 | 1018.6 |
| 20260507232005 | 20 | 214 | 9.7 | 25.7 | 0.00 | 0.00 | 0.00 | 17 | 1018.6 |
| 20260507231005 | 20 | 240 | 12.9 | 22.5 | 0.00 | 0.00 | 0.00 | 17 | 1018.6 |
| 20260507230505 | 20 | 234 | 9.7 | 22.5 | 0.00 | 0.00 | 0.00 | 17 | 1018.8 |
| 20260507230005 | 20 | 222 | 16.1 | 24.1 | 0.00 | 0.00 | 0.00 | 15 | 1018.8 |
| 20260507225505 | 20 | 214 | 19.3 | 25.7 | 0.00 | 0.00 | 0.00 | 16 | 1019.0 |
| 20260507224505 | 20 | 173 | 11.3 | 25.7 | 0.00 | 0.00 | 0.00 | 16 | 1018.7 |
| 20260507223504 | 20 | 211 | 16.1 | 29.0 | 0.00 | 0.00 | 0.00 | 17 | 1018.7 |
| 20260507223005 | 20 | 191 | 16.1 | 29.0 | 0.00 | 0.00 | 0.00 | 17 | 1018.7 |
| 20260507222504 | 19 | 155 | 11.3 | 20.9 | 0.00 | 0.00 | 0.00 | 16 | 1019.0 |
| 20260507222005 | 19 | 169 | 4.8 | 19.3 | 0.00 | 0.00 | 0.00 | 17 | 1019.0 |
| 20260507221505 | 19 | 202 | 4.8 | 22.5 | 0.00 | 0.00 | 0.00 | 16 | 1019.0 |
| 20260507220504 | 19 | 217 | 16.1 | 25.7 | 0.00 | 0.00 | 0.00 | 16 | 1019.7 |
| 20260507215505 | 19 | 222 | 16.1 | 24.1 | 0.00 | 0.00 | 0.00 | 17 | 1019.3 |
| 20260507215005 | 19 | 250 | 8.0 | 20.9 | 0.00 | 0.00 | 0.00 | 17 | 1019.5 |
| 20260507214505 | 19 | 252 | 8.0 | 19.3 | 0.00 | 0.00 | 0.00 | 16 | 1019.5 |
| 20260507214005 | 19 | 244 | 11.3 | 20.9 | 0.00 | 0.00 | 0.00 | 18 | 1019.7 |
| 20260507212504 | 18 | 135 | 9.7 | 22.5 | 0.00 | 0.00 | 0.00 | 17 | 1019.8 |
| 20260507212005 | 18 | 175 | 9.7 | 22.5 | 0.00 | 0.00 | 0.00 | 18 | 1020.1 |
| 20260507211505 | 18 | 201 | 16.1 | 22.5 | 0.00 | 0.00 | 0.00 | 18 | 1020.3 |
| 20260507210505 | 18 | 205 | 16.1 | 24.1 | 0.00 | 0.00 | 0.00 | 17 | 1020.5 |
| 20260507210005 | 18 | 136 | 6.4 | 22.5 | 0.00 | 0.00 | 0.00 | 17 | 1020.5 |
| 20260507205505 | 18 | 174 | 9.7 | 22.5 | 0.00 | 0.00 | 0.00 | 17 | 1020.9 |
| 20260507205005 | 18 | 224 | 12.9 | 22.5 | 0.00 | 0.00 | 0.00 | 17 | 1020.9 |
| 20260507204505 | 17 | 269 | 14.5 | 22.5 | 0.00 | 0.00 | 0.00 | 17 | 1020.9 |
| 20260507204004 | 17 | 145 | 11.3 | 22.5 | 0.00 | 0.00 | 0.00 | 17 | 1020.9 |
| 20260507202505 | 17 | 127 | 9.7 | 16.1 | 0.00 | 0.00 | 0.00 | 17 | 1021.6 |
| 20260507202005 | 17 | 89 | 6.4 | 12.9 | 0.00 | 0.00 | 0.00 | 16 | 1021.6 |
| 20260507201504 | 17 | 126 | 4.8 | 19.3 | 0.00 | 0.00 | 0.00 | 17 | 1021.6 |
| 20260507201005 | 17 | 275 | 4.8 | 22.5 | 0.00 | 0.00 | 0.00 | 16 | 1021.8 |
| 20260507200505 | 17 | 239 | 16.1 | 22.5 | 0.00 | 0.00 | 0.00 | 17 | 1021.7 |
| 20260507200005 | 17 | 232 | 9.7 | 22.5 | 0.00 | 0.00 | 0.00 | 18 | 1021.3 |
| 20260507195505 | 17 | 267 | 8.0 | 19.3 | 0.00 | 0.00 | 0.00 | 17 | 1021.5 |
| 20260507195005 | 16 | 285 | 9.7 | 19.3 | 0.00 | 0.00 | 0.00 | 19 | 1021.6 |
| 20260507194505 | 16 | 251 | 11.3 | 19.3 | 0.00 | 0.00 | 0.00 | 18 | 1021.6 |
| 20260507194005 | 16 | 22 | 6.4 | 19.3 | 0.00 | 0.00 | 0.00 | 17 | 1021.7 |
| 20260507193504 | 16 | 221 | 4.8 | 19.3 | 0.00 | 0.00 | 0.00 | 18 | 1021.9 |
| 20260507193005 | 16 | 284 | 11.3 | 19.3 | 0.00 | 0.00 | 0.00 | 17 | 1022.1 |
| 20260507192505 | 17 | 246 | 8.0 | 20.9 | 0.00 | 0.00 | 0.00 | 20 | 1022.1 |
| 20260507192005 | 16 | 229 | 4.8 | 22.5 | 0.00 | 0.00 | 0.00 | 18 | 1022.1 |
| 20260507191504 | 16 | 243 | 9.7 | 22.5 | 0.00 | 0.00 | 0.00 | 19 | 1022.2 |
| 20260507190504 | 16 | 201 | 9.7 | 19.3 | 0.00 | 0.00 | 0.00 | 19 | 1022.4 |
| 20260507190005 | 15 | 248 | 11.3 | 19.3 | 0.00 | 0.00 | 0.00 | 18 | 1022.6 |
| 20260507185004 | 15 | 258 | 9.7 | 19.3 | 0.00 | 0.00 | 0.00 | 19 | 1022.5 |
| 20260507184504 | 15 | 242 | 9.7 | 24.1 | 0.00 | 0.00 | 0.00 | 19 | 1022.5 |
| 20260507184005 | 15 | 223 | 14.5 | 24.1 | 0.00 | 0.00 | 0.00 | 18 | 1022.5 |
| 20260507183504 | 15 | 198 | 9.7 | 19.3 | 0.00 | 0.00 | 0.00 | 19 | 1022.6 |
| 20260507182504 | 14 | 292 | 9.7 | 19.3 | 0.00 | 0.00 | 0.00 | 19 | 1022.7 |
| 20260507182005 | 14 | 250 | 12.9 | 19.3 | 0.00 | 0.00 | 0.00 | 17 | 1022.7 |
| 20260507181505 | 14 | 267 | 9.7 | 19.3 | 0.00 | 0.00 | 0.00 | 19 | 1023.3 |
| 20260507181004 | 14 | 240 | 14.5 | 22.5 | 0.00 | 0.00 | 0.00 | 19 | 1023.3 |
| 20260507180505 | 15 | 229 | 11.3 | 22.5 | 0.00 | 0.00 | 0.00 | 20 | 1023.3 |
| 20260507180005 | 14 | 236 | 12.9 | 22.5 | 0.00 | 0.00 | 0.00 | 22 | 1023.3 |
| 20260507174504 | 14 | 220 | 8.0 | 19.3 | 0.00 | 0.00 | 0.00 | 23 | 1023.3 |
| 20260507174004 | 14 | 168 | 14.5 | 19.3 | 0.00 | 0.00 | 0.00 | 22 | 1023.3 |
| 20260507173505 | 13 | 179 | 1.6 | 16.1 | 0.00 | 0.00 | 0.00 | 20 | 1023.3 |
| 20260507173005 | 13 | 191 | 9.7 | 16.1 | 0.00 | 0.00 | 0.00 | 18 | 1023.4 |
| 20260507172505 | 13 | 160 | 4.8 | 16.1 | 0.00 | 0.00 | 0.00 | 20 | 1023.5 |
| 20260507172005 | 13 | 167 | 9.7 | 16.1 | 0.00 | 0.00 | 0.00 | 20 | 1023.5 |
| 20260507171504 | 13 | 76 | 3.2 | 14.5 | 0.00 | 0.00 | 0.00 | 19 | 1023.9 |
| 20260507170505 | 12 | 244 | 6.4 | 12.9 | 0.00 | 0.00 | 0.00 | 23 | 1023.5 |
| 20260507170004 | 12 | 143 | 9.7 | 12.9 | 0.00 | 0.00 | 0.00 | 24 | 1023.6 |
| 20260507165504 | 12 | 122 | 3.2 | 12.9 | 0.00 | 0.00 | 0.00 | 24 | 1023.9 |
| 20260507165004 | 12 | 177 | 6.4 | 12.9 | 0.00 | 0.00 | 0.00 | 25 | 1023.9 |
| 20260507164504 | 12 | 186 | 1.6 | 12.9 | 0.00 | 0.00 | 0.00 | 25 | 1023.9 |
| 20260507164004 | 12 | 117 | 3.2 | 12.9 | 0.00 | 0.00 | 0.00 | 24 | 1023.9 |
| 20260507163504 | 12 | 209 | 9.7 | 14.5 | 0.00 | 0.00 | 0.00 | 24 | 1023.9 |
| 20260507163005 | 11 | 119 | 1.6 | 14.5 | 0.00 | 0.00 | 0.00 | 26 | 1023.9 |
| 20260507162504 | 11 | 197 | 8.0 | 14.5 | 0.00 | 0.00 | 0.00 | 27 | 1024.1 |
| 20260507162005 | 11 | 179 | 9.7 | 19.3 | 0.00 | 0.00 | 0.00 | 25 | 1024.1 |
| 20260507161505 | 11 | 170 | 9.7 | 19.3 | 0.00 | 0.00 | 0.00 | 26 | 1024.2 |
| 20260507160004 | 10 | 160 | 9.7 | 19.3 | 0.00 | 0.00 | 0.00 | 26 | 1024.2 |
| 20260507155504 | 10 | 205 | 9.7 | 19.3 | 0.00 | 0.00 | 0.00 | 27 | 1024.2 |
| 20260507154504 | 10 | 200 | 9.7 | 19.3 | 0.00 | 0.00 | 0.00 | 28 | 1024.4 |
| 20260507154005 | 10 | 184 | 8.0 | 19.3 | 0.00 | 0.00 | 0.00 | 27 | 1024.4 |
| 20260507153505 | 10 | 179 | 11.3 | 19.3 | 0.00 | 0.00 | 0.00 | 27 | 1024.4 |
| 20260507153004 | 10 | 181 | 11.3 | 19.3 | 0.00 | 0.00 | 0.00 | 29 | 1024.4 |
| 20260507152505 | 10 | 186 | 14.5 | 19.3 | 0.00 | 0.00 | 0.00 | 30 | 1024.4 |
| 20260507152005 | 10 | 186 | 12.9 | 22.5 | 0.00 | 0.00 | 0.00 | 29 | 1024.5 |
| 20260507151505 | 10 | 190 | 17.7 | 22.5 | 0.00 | 0.00 | 0.00 | 28 | 1024.5 |
| 20260507151004 | 10 | 211 | 11.3 | 19.3 | 0.00 | 0.00 | 0.00 | 26 | 1024.5 |
| 20260507150505 | 10 | 227 | 8.0 | 11.3 | 0.00 | 0.00 | 0.00 | 27 | 1024.5 |
| 20260507150005 | 9 | 218 | 4.8 | 8.0 | 0.00 | 0.00 | 0.00 | 28 | 1024.5 |
| 20260507145504 | 9 | 225 | 4.8 | 8.0 | 0.00 | 0.00 | 0.00 | 28 | 1024.4 |
| 20260507144504 | 8 | 243 | 3.2 | 4.8 | 0.00 | 0.00 | 0.00 | 29 | 1024.7 |
| 20260507144004 | 8 | 264 | 1.6 | 4.8 | 0.00 | 0.00 | 0.00 | 32 | 1024.7 |
| 20260507143504 | 8 | 253 | 3.2 | 4.8 | 0.00 | 0.00 | 0.00 | 31 | 1024.7 |
| 20260507143005 | 8 | 262 | 4.8 | 4.8 | 0.00 | 0.00 | 0.00 | 32 | 1024.9 |
| 20260507142505 | 8 | 253 | 0.0 | 4.8 | 0.00 | 0.00 | 0.00 | 31 | 1024.9 |
| 20260507142004 | 8 | 252 | 3.2 | 4.8 | 0.00 | 0.00 | 0.00 | 30 | 1024.9 |
| 20260507141504 | 7 | 71 | 0.0 | 3.2 | 0.00 | 0.00 | 0.00 | 27 | 1024.9 |
| 20260507140504 | 6 | 72 | 1.6 | 4.8 | 0.00 | 0.00 | 0.00 | 31 | 1024.9 |
| 20260507140005 | 5 | 72 | 1.6 | 4.8 | 0.00 | 0.00 | 0.00 | 35 | 1024.9 |
| 20260507135504 | 4 | 72 | 1.6 | 4.8 | 0.00 | 0.00 | 0.00 | 36 | 1024.9 |
| 20260507135005 | 3 | 72 | 3.2 | 4.8 | 0.00 | 0.00 | 0.00 | 38 | 1024.6 |
| 20260507134504 | 3 | 58 | 3.2 | 4.8 | 0.00 | 0.00 | 0.00 | 39 | 1024.6 |
| 20260507134004 | 2 | 50 | 1.6 | 4.8 | 0.00 | 0.00 | 0.00 | 43 | 1024.6 |
| 20260507133505 | 1 | 44 | 3.2 | 4.8 | 0.00 | 0.00 | 0.00 | 44 | 1024.6 |
| 20260507133004 | 1 | 44 | 3.2 | 8.0 | 0.00 | 0.00 | 0.00 | 45 | 1024.6 |
| 20260507132505 | 0 | 52 | 6.4 | 9.7 | 0.00 | 0.00 | 0.00 | 45 | 1024.6 |
| 20260507131504 | 0 | 58 | 6.4 | 16.1 | 0.00 | 0.00 | 0.00 | 47 | 1024.3 |
| 20260507131005 | -1 | 38 | 9.7 | 16.1 | 0.00 | 0.00 | 0.00 | 46 | 1024.3 |
| 20260507130005 | -1 | 40 | 9.7 | 16.1 | 0.00 | 0.00 | 0.00 | 48 | 1024.6 |
| 20260507125504 | -2 | 44 | 12.9 | 16.1 | 0.00 | 0.00 | 0.00 | 51 | 1024.6 |
| 20260507125004 | -3 | 45 | 12.9 | 19.3 | 0.00 | 0.00 | 0.00 | 54 | 1024.4 |
| 20260507124505 | -3 | 42 | 14.5 | 19.3 | 0.00 | 0.00 | 0.00 | 55 | 1024.4 |
| 20260507124004 | -3 | 43 | 12.9 | 19.3 | 0.00 | 0.00 | 0.00 | 54 | 1024.6 |
| 20260507123504 | -3 | 45 | 14.5 | 19.3 | 0.00 | 0.00 | 0.00 | 55 | 1024.1 |
| 20260507123005 | -4 | 46 | 14.5 | 19.3 | 0.00 | 0.00 | 0.00 | 57 | 1024.1 |
| 20260507122504 | -5 | 45 | 11.3 | 14.5 | 0.00 | 0.00 | 0.00 | 58 | 1024.1 |
| 20260507122005 | -5 | 53 | 8.0 | 14.5 | 0.00 | 0.00 | 0.00 | 58 | 1024.0 |
| 20260507121505 | -5 | 54 | 11.3 | 14.5 | 0.00 | 0.00 | 0.00 | 59 | 1024.3 |
| 20260507120504 | -4 | 40 | 11.3 | 14.5 | 0.00 | 0.00 | 0.00 | 57 | 1024.3 |
| 20260507120005 | -5 | 58 | 8.0 | 11.3 | 0.00 | 0.00 | 0.00 | 58 | 1024.3 |
| 20260507115504 | -5 | 52 | 8.0 | 11.3 | 0.00 | 0.00 | 0.00 | 59 | 1024.2 |
| 20260507115004 | -5 | 55 | 9.7 | 14.5 | 0.00 | 0.00 | 0.00 | 60 | 1023.7 |
| 20260507114505 | -5 | 47 | 11.3 | 14.5 | 0.00 | 0.00 | 0.00 | 60 | 1023.7 |
| 20260507114005 | -5 | 42 | 9.7 | 14.5 | 0.00 | 0.00 | 0.00 | 60 | 1023.7 |
| 20260507113504 | -5 | 50 | 8.0 | 14.5 | 0.00 | 0.00 | 0.00 | 59 | 1023.7 |
| 20260507113005 | -5 | 62 | 4.8 | 11.3 | 0.00 | 0.00 | 0.00 | 60 | 1023.7 |
| 20260507112504 | -5 | 55 | 8.0 | 14.5 | 0.00 | 0.00 | 0.00 | 61 | 1023.7 |
| 20260507112004 | -5 | 44 | 9.7 | 14.5 | 0.00 | 0.00 | 0.00 | 61 | 1023.7 |
| 20260507111004 | -5 | 51 | 9.7 | 14.5 | 0.00 | 0.00 | 0.00 | 60 | 1023.8 |
| 20260507110004 | -5 | 42 | 11.3 | 14.5 | 0.00 | 0.00 | 0.00 | 58 | 1023.8 |
| 20260507105504 | -4 | 41 | 11.3 | 14.5 | 0.00 | 0.00 | 0.00 | 56 | 1023.7 |